Preview of NWS' New Version of Forecast
This preview is not operational and should not be used for support decisions.

Regional Weather Roundup (RWR)

Issued by National Weather Service (NWS)

                            
000
ASUS45 KBOI 170010
RWRID 

IDAHO REGIONAL WEATHER ROUNDUP
NATIONAL WEATHER SERVICE BOISE ID
500 PM MST SAT FEB 16 2019

NOTE: "FAIR" INDICATES FEW OR NO CLOUDS BELOW 12000 FEET
WITH NO SIGNIFICANT WEATHER AND/OR OBSTRUCTIONS TO VISIBILITY

IDZ012-014-170100-
SOUTHWEST IDAHO

  
CITY           SKY/WX    TMP DP  RH WIND       PRES   REMARKS
BOISE          PTSUNNY   37  31  78 SE7       29.80S WCI  32          
CALDWELL       PTSUNNY   40  31  70 NE9       29.80S WCI  34          
MOUNTAIN HOME  LGT RAIN  39  33  78 CALM      29.80R                  
$$

IDZ016-017-170100-
SOUTHCENTRAL IDAHO

  
CITY           SKY/WX    TMP DP  RH WIND       PRES   REMARKS
BURLEY         LGT SNOW  30  27  88 W5        29.80S FOG     WCI  25  
JEROME         MOSUNNY   31  27  85 S5        29.79F WCI  26          
TWIN FALLS     LGT SNOW  29  26  89 SW13      29.80S VSB 3/4 WCI  19  
$$

IDZ019>023-170100-
SOUTHEAST IDAHO

  
CITY           SKY/WX    TMP DP  RH WIND       PRES   REMARKS
IDAHO FALLS    CLOUDY    26  21  81 SW15      29.78S WCI  14          
POCATELLO      MOCLDY    30  25  81 SW13      29.80F WCI  20          
REXBURG        MOCLDY    27  18  69 SW13      29.76F WCI  16          
$$

IDZ006-010-011-018-031-032-170100-
CENTRAL IDAHO MOUNTAINS

  
CITY           SKY/WX    TMP DP  RH WIND       PRES   REMARKS
MCCALL         CLOUDY    27  19  72 S6        29.68S WCI  20          
HAILEY         PTSUNNY   21  18  86 S3        29.75S                  
STANLEY          N/A     23  17  78 CALM      29.66S                  
SALMON         CLOUDY    31  21  66 N3        29.71S                  
CHALLIS        CLOUDY    30  20  66 NW6       29.68S WCI  24          
$$

IDZ002-004-006-007-026-170100-
NORTHERN IDAHO

  
CITY           SKY/WX    TMP DP  RH WIND       PRES   REMARKS
LEWISTON       CLOUDY    34  32  92 CALM      29.82R                  
LOWELL         NOT AVBL                                               
COEUR D'ALENE  LGT SNOW  34  30  86 SW3       29.78R FOG              
MULLAN PASS    FOG       22  19  89 VRB5      29.62R VSB 1/2 WCI  16  
$$